GFSNIL_con_mucape_162.txt.gz
CAPE
2 3 4 6 2 7 18 123 45 50 259 175 244 348 265 142 133 70 36 47 16 1
0 0 0 0 0 3 4 9 55 15 111 130 216 317 292 210 116 91 57 61 38 12
0 0 0 0 0 0 0 2 2 8 75 187 201 223 151 140 221 130 59 52 38 15
0 4 5 4 5 1 0 0 5 12 12 18 63 141 126 167 97 127 100 85 50 33
4 2 7 6 4 0 0 0 0 1 0 17 43 39 13 108 41 77 87 37 37 11
0 9 9 6 3 1 0 2 14 5 8 15 40 35 36 15 56 40 22 35 9 2
11 9 4 4 6 8 6 6 4 21 21 14 41 19 57 43 18 15 6 3 3 22
0 0 0 1 8 5 5 10 4 11 24 25 27 18 8 0 0 0 0 1 0 0
0 0 0 0 2 11 1 13 2 17 8 14 3 4 0 0 0 0 0 1 0 0
0 0 0 0 7 9 5 1 10 0 1 3 2 0 3 6 3 1 3 3 2 1
0 0 0 0 0 4 4 7 9 11 21 17 14 12 16 16 11 10 5 2 11 4
0 0 0 0 0 0 0 8 12 8 7 5 4 3 3 3 4 1 3 0 0 0
0 0 0 2 0 0 0 0 0 0 0 0 0 0 0 0 0 0 0 0 0 0
0 0 0 0 0 0 0 0 0 0 0 0 0 0 0 0 0 0 0 0 0 0

GFSNIL_con_mucape_165.txt.gz
CAPE
1 2 12 3 47 68 60 76 108 144 130 171 91 142 168 259 162 83 39 46 42 26
6 16 12 9 42 107 73 55 69 115 143 142 198 321 291 79 168 77 36 37 31 39
1 6 5 5 5 3 1 2 3 45 136 184 179 299 301 140 119 62 65 53 43 40
11 0 0 0 0 0 0 0 3 1 58 123 158 233 323 151 63 90 55 56 37 26
1 1 4 3 1 0 0 0 0 0 5 35 40 162 205 106 100 82 96 73 53 49
1 1 4 5 5 4 0 1 6 4 12 10 6 18 28 39 30 62 50 56 58 38
0 3 7 4 9 12 1 17 5 4 27 25 16 16 9 13 47 42 34 14 13 0
6 2 2 4 10 7 4 5 11 3 15 11 16 13 33 16 22 7 3 7 0 0
0 0 0 1 6 7 7 8 8 27 12 14 17 16 24 3 3 0 0 0 0 0
2 0 0 0 3 17 11 9 0 5 6 0 0 0 0 0 0 1 3 4 0 1
0 0 0 0 0 5 7 1 5 3 0 0 1 4 4 5 4 7 15 8 7 7
0 0 0 0 0 0 11 6 20 7 13 12 10 4 19 12 20 14 0 0 0 0
0 0 0 2 0 1 6 18 19 3 1 6 0 2 0 0 0 0 0 0 0 0
0 0 0 2 2 2 3 1 0 0 0 0 0 0 0 0 0 0 0 0 0 0

GFSNIL_con_mucape_168.txt.gz
CAPE
0 0 0 4 0 0 3 3 5 117 61 23 11 19 33 57 59 65 86 30 23 12
1 3 6 9 10 67 8 33 74 196 110 239 53 76 48 36 64 49 8 21 33 30
2 1 5 16 1 1 1 0 2 133 149 227 131 204 145 104 73 104 53 57 55 35
4 2 3 1 0 0 0 0 3 12 19 209 198 333 189 199 132 80 84 86 31 6
3 0 0 0 0 0 0 0 0 0 2 71 74 144 204 142 135 96 94 60 18 14
0 0 2 0 0 2 0 0 0 1 1 11 39 50 129 85 106 113 68 46 50 34
2 0 0 0 0 7 7 0 0 2 20 24 13 9 37 45 43 29 51 45 59 16
0 1 5 0 2 3 3 0 1 2 24 12 49 29 50 20 34 26 21 6 9 5
0 1 0 0 18 3 2 6 9 24 21 24 8 14 21 24 19 2 0 0 0 2
0 3 2 0 9 7 14 4 0 16 13 4 4 5 4 0 16 0 4 3 2 0
2 6 0 0 0 17 11 9 20 23 3 5 6 15 8 4 3 8 8 15 17 16
5 5 0 0 4 11 13 21 17 22 8 22 12 15 13 4 16 10 3 0 0 0
5 0 0 5 0 13 16 9 8 9 9 9 2 2 2 2 0 0 0 0 0 0
0 0 4 2 1 6 15 2 2 0 0 0 0 0 0 0 0 0 0 0 0 0

GFSNIL_con_mucape_171.txt.gz
CAPE
0 0 0 0 0 0 1 0 0 1 41 146 13 0 0 20 32 23 30 39 30 26
0 0 0 0 5 4 4 2 5 70 140 115 7 0 0 21 25 21 31 24 25 38
2 6 12 11 7 9 7 5 3 74 156 76 135 105 92 50 31 23 45 25 15 34
3 8 6 10 2 2 0 1 0 2 28 54 123 221 207 133 108 76 82 63 68 40
8 5 3 0 0 0 0 0 0 3 2 96 132 115 242 129 114 114 77 81 24 33
6 5 0 0 0 0 0 0 0 0 0 2 32 119 115 99 120 113 81 40 68 36
4 2 1 0 0 0 0 0 0 0 22 21 29 57 93 94 94 31 13 31 30 4
1 1 0 0 0 0 0 0 0 1 9 16 14 53 51 15 24 17 8 9 8 14
3 1 1 0 3 0 0 3 0 10 12 16 31 38 10 18 5 3 9 0 2 2
3 1 0 0 16 6 0 5 3 18 19 17 17 18 19 17 12 6 0 0 0 23
0 6 0 0 0 22 13 23 17 11 6 0 1 2 10 9 3 10 14 12 14 7
7 11 0 0 8 17 16 12 18 13 15 16 16 19 18 27 12 1 0 1 6 0
3 0 2 7 22 25 8 17 20 4 6 15 4 20 8 5 1 0 0 0 0 0
1 0 11 2 19 19 8 20 22 4 5 6 0 0 0 0 0 0 0 0 0 0

GFSNIL_con_mucape_174.txt.gz
CAPE
0 0 0 0 0 4 10 23 25 8 0 7 92 14 8 8 19 50 14 13 16 17
0 0 0 0 1 3 3 0 0 0 0 93 79 3 0 1 90 51 22 25 16 15
0 0 0 1 4 3 8 13 10 15 21 62 89 59 8 14 30 27 11 18 8 8
0 1 2 7 6 5 8 6 3 22 44 99 111 97 148 140 89 53 35 44 46 42
9 3 3 5 1 0 0 0 0 0 1 39 72 77 171 209 120 85 81 76 88 27
5 5 10 0 0 0 0 0 0 0 1 4 34 88 113 129 216 172 85 81 40 45
4 6 0 0 0 0 0 0 0 0 0 7 60 64 77 98 81 27 8 12 6 26
3 0 0 0 0 0 0 0 0 1 8 23 24 51 69 74 57 11 4 7 8 11
2 2 0 0 0 0 0 0 0 0 5 19 7 42 24 24 7 5 0 0 7 15
2 2 0 0 0 6 4 0 2 14 22 32 29 23 19 15 7 10 0 0 15 0
6 7 0 7 10 9 5 9 21 11 14 18 14 15 17 11 7 2 0 0 0 9
6 5 0 0 12 31 30 19 14 20 16 9 12 21 14 12 3 1 6 10 2 0
6 3 0 13 4 18 9 7 21 12 26 25 10 19 22 8 0 0 0 0 0 0
5 3 6 13 11 24 24 14 12 6 17 6 3 0 0 0 0 0 0 0 0 0